Location: Antioch Baptist Church
(32.6696°N, 85.7327°W)
Time: 10:10:44
(UTC+00:00)

Cosmos-2242 - Pass Details

Date: 02 November 2020
Orbit: 592 x 616 km, 82.5° (Epoch: 26 November)

Event Time Altitude Azimuth Distance (km) Brightness Sun altitude
Rises 00:09:46 0° 178° (S) 2,813 6.5 -16.9°
Reaches altitude 10° 00:11:58 10° 175° (S) 1,918 5.6 -17.4°
Maximum altitude 00:16:09 63° 94° (E) 668 2.9 -18.2°
Drops below altitude 10° 00:20:23 10° 14° (NNE) 1,942 5.4 -19.1°
Enters shadow 00:20:53 - 13° (NNE) 2,144 5.6 -19.2°
